N017SB YWLM-YWLM

Flight info

Callsign N017SB
Flight time 0h 41m
Altitude 6000
Route GOLOM DCT BRI DCT SUG DCT UBSON DCT OBKUR
Aircraft C208/L-SDFGR/C

Departure

Time 2026-04-25 04:21
Airport Newcastle Airport (YWLM)

Arrival

Time 2026-04-25 05:02
Airport Newcastle Airport (YWLM)
Time Latitude Longitude Altitude Speed Heading
2026-04-25 03:53 -32.79409 151.84802 28 ft 0 kts 329°
2026-04-25 04:02 -32.79409 151.84803 28 ft 0 kts 329°
2026-04-25 04:11 -32.79410 151.84803 28 ft 0 kts 329°
2026-04-25 04:12 -32.79402 151.84798 28 ft 5 kts 335°
2026-04-25 04:12 -32.79425 151.84746 28 ft 13 kts 234°
2026-04-25 04:13 -32.79474 151.84675 28 ft 2 kts 216°
2026-04-25 04:13 -32.79496 151.84656 28 ft 9 kts 216°
2026-04-25 04:13 -32.79557 151.84563 28 ft 17 kts 236°
2026-04-25 04:13 -32.79618 151.84448 28 ft 13 kts 235°
2026-04-25 04:14 -32.79655 151.84356 28 ft 11 kts 311°
2026-04-25 04:14 -32.79618 151.84249 29 ft 16 kts 234°
2026-04-25 04:14 -32.79699 151.84122 29 ft 24 kts 235°
2026-04-25 04:14 -32.79724 151.83964 29 ft 16 kts 307°
2026-04-25 04:15 -32.79639 151.83843 30 ft 25 kts 310°
2026-04-25 04:15 -32.79518 151.83672 31 ft 29 kts 311°
2026-04-25 04:15 -32.79420 151.83534 32 ft 20 kts 310°
2026-04-25 04:15 -32.79317 151.83390 32 ft 24 kts 310°
2026-04-25 04:16 -32.79200 151.83228 34 ft 23 kts 309°
2026-04-25 04:16 -32.79132 151.83133 34 ft 13 kts 310°
2026-04-25 04:16 -32.79059 151.83030 35 ft 18 kts 311°
2026-04-25 04:16 -32.78963 151.82896 35 ft 23 kts 310°
2026-04-25 04:17 -32.78855 151.82742 36 ft 21 kts 310°
2026-04-25 04:17 -32.78760 151.82611 37 ft 26 kts 310°
2026-04-25 04:17 -32.78643 151.82451 38 ft 25 kts 309°
2026-04-25 04:17 -32.78631 151.82429 38 ft 0 kts 292°
2026-04-25 04:19 -32.78625 151.82395 38 ft 11 kts 268°
2026-04-25 04:19 -32.78653 151.82334 38 ft 0 kts 216°
2026-04-25 04:19 -32.78655 151.82333 37 ft 3 kts 216°
2026-04-25 04:20 -32.78710 151.82290 36 ft 14 kts 188°
2026-04-25 04:20 -32.78754 151.82320 36 ft 0 kts 130°
2026-04-25 04:20 -32.78781 151.82358 36 ft 26 kts 130°
2026-04-25 04:20 -32.79035 151.82718 44 ft 83 kts 126°
2026-04-25 04:21 -32.79474 151.83307 224 ft 106 kts 130°
2026-04-25 04:21 -32.79970 151.83995 532 ft 110 kts 127°
2026-04-25 04:21 -32.80451 151.84722 812 ft 115 kts 126°
2026-04-25 04:21 -32.80956 151.85498 1037 ft 122 kts 119°
2026-04-25 04:22 -32.81159 151.86490 1221 ft 126 kts 89°
2026-04-25 04:22 -32.81071 151.87496 1608 ft 112 kts 80°
2026-04-25 04:22 -32.80889 151.88436 1735 ft 119 kts 75°
2026-04-25 04:22 -32.80588 151.89348 1939 ft 122 kts 66°
2026-04-25 04:23 -32.80172 151.90299 1838 ft 131 kts 60°
2026-04-25 04:23 -32.79657 151.91174 1567 ft 129 kts 48°
2026-04-25 04:23 -32.79032 151.91890 1383 ft 125 kts 43°
2026-04-25 04:23 -32.78346 151.92505 1265 ft 121 kts 36°
2026-04-25 04:24 -32.77648 151.93051 1091 ft 121 kts 42°
2026-04-25 04:24 -32.77077 151.93782 864 ft 121 kts 53°
2026-04-25 04:24 -32.76643 151.94613 680 ft 116 kts 65°
2026-04-25 04:24 -32.76319 151.95447 646 ft 110 kts 69°
2026-04-25 04:25 -32.76042 151.96299 611 ft 110 kts 73°
2026-04-25 04:25 -32.75823 151.97182 526 ft 113 kts 75°
2026-04-25 04:25 -32.75637 151.98056 542 ft 107 kts 77°
2026-04-25 04:25 -32.75438 151.98891 545 ft 105 kts 77°
2026-04-25 04:26 -32.75296 151.99761 505 ft 109 kts 79°
2026-04-25 04:26 -32.75138 152.00653 467 ft 111 kts 78°
2026-04-25 04:26 -32.74955 152.01541 416 ft 111 kts 76°
2026-04-25 04:26 -32.74743 152.02433 378 ft 113 kts 74°
2026-04-25 04:27 -32.74521 152.03320 331 ft 111 kts 73°
2026-04-25 04:27 -32.74282 152.04187 289 ft 110 kts 71°
2026-04-25 04:27 -32.74022 152.05008 361 ft 104 kts 69°
2026-04-25 04:27 -32.73741 152.05783 424 ft 102 kts 66°
2026-04-25 04:28 -32.73429 152.06560 418 ft 105 kts 65°
2026-04-25 04:28 -32.73093 152.07329 423 ft 105 kts 63°
2026-04-25 04:28 -32.72745 152.08093 418 ft 106 kts 62°
2026-04-25 04:28 -32.72384 152.08849 497 ft 101 kts 61°
2026-04-25 04:29 -32.72032 152.09543 575 ft 98 kts 60°
2026-04-25 04:29 -32.71670 152.10268 505 ft 106 kts 64°
2026-04-25 04:29 -32.71532 152.11119 507 ft 104 kts 91°
2026-04-25 04:29 -32.71596 152.11985 548 ft 111 kts 89°
2026-04-25 04:30 -32.71424 152.12917 532 ft 120 kts 67°
2026-04-25 04:30 -32.70910 152.13723 542 ft 124 kts 42°
2026-04-25 04:30 -32.70265 152.14301 715 ft 108 kts 41°
2026-04-25 04:30 -32.69705 152.14807 864 ft 99 kts 43°
2026-04-25 04:31 -32.69181 152.15336 1002 ft 97 kts 49°
2026-04-25 04:31 -32.68675 152.15873 1125 ft 98 kts 46°
2026-04-25 04:31 -32.68170 152.16458 1190 ft 103 kts 49°
2026-04-25 04:31 -32.67672 152.17042 1345 ft 100 kts 47°
2026-04-25 04:32 -32.67120 152.17652 1250 ft 119 kts 46°
2026-04-25 04:32 -32.66507 152.18315 1331 ft 115 kts 41°
2026-04-25 04:32 -32.65875 152.18899 1413 ft 115 kts 40°
2026-04-25 04:32 -32.65216 152.19399 1515 ft 115 kts 33°
2026-04-25 04:33 -32.64550 152.19960 1498 ft 120 kts 44°
2026-04-25 04:33 -32.63901 152.20602 1468 ft 123 kts 43°
2026-04-25 04:33 -32.63255 152.21222 1593 ft 116 kts 40°
2026-04-25 04:33 -32.62599 152.21794 1611 ft 119 kts 39°
2026-04-25 04:34 -32.61931 152.22401 1626 ft 122 kts 40°
2026-04-25 04:34 -32.61229 152.22966 1673 ft 122 kts 39°
2026-04-25 04:34 -32.60577 152.23579 1746 ft 120 kts 41°
2026-04-25 04:34 -32.59910 152.24187 1764 ft 122 kts 39°
2026-04-25 04:35 -32.59198 152.24776 1718 ft 127 kts 39°
2026-04-25 04:35 -32.58497 152.25405 1716 ft 126 kts 40°
2026-04-25 04:35 -32.57829 152.26060 1765 ft 123 kts 42°
2026-04-25 04:35 -32.57154 152.26709 1753 ft 124 kts 42°
2026-04-25 04:36 -32.56437 152.27326 1874 ft 129 kts 34°
2026-04-25 04:36 -32.55591 152.27766 1850 ft 145 kts 21°
2026-04-25 04:36 -32.54684 152.28316 1888 ft 141 kts 41°
2026-04-25 04:36 -32.54032 152.29163 1924 ft 143 kts 57°
2026-04-25 04:37 -32.53547 152.30201 1927 ft 144 kts 65°
2026-04-25 04:37 -32.53118 152.31261 2043 ft 139 kts 66°
2026-04-25 04:37 -32.52689 152.32309 2052 ft 144 kts 64°
2026-04-25 04:37 -32.52225 152.33376 2056 ft 146 kts 63°
2026-04-25 04:38 -32.51721 152.34420 2082 ft 146 kts 60°
2026-04-25 04:38 -32.51186 152.35446 2098 ft 148 kts 59°
2026-04-25 04:38 -32.50607 152.36462 2103 ft 150 kts 57°
2026-04-25 04:38 -32.50002 152.37466 2104 ft 150 kts 56°
2026-04-25 04:39 -32.49374 152.38447 2105 ft 149 kts 54°
2026-04-25 04:39 -32.48744 152.39364 2106 ft 150 kts 52°
2026-04-25 04:39 -32.48089 152.40259 2104 ft 150 kts 50°
2026-04-25 04:39 -32.47342 152.41133 2111 ft 150 kts 35°
2026-04-25 04:40 -32.46300 152.41130 2032 ft 166 kts 334°
2026-04-25 04:40 -32.45587 152.40065 1963 ft 171 kts 289°
2026-04-25 04:40 -32.45292 152.38706 1945 ft 170 kts 284°
2026-04-25 04:40 -32.45076 152.37357 1952 ft 167 kts 278°
2026-04-25 04:41 -32.44926 152.36058 1939 ft 149 kts 278°
2026-04-25 04:41 -32.44799 152.34900 1902 ft 136 kts 277°
2026-04-25 04:41 -32.44694 152.33814 1885 ft 133 kts 276°
2026-04-25 04:41 -32.44611 152.32622 1899 ft 156 kts 274°
2026-04-25 04:42 -32.44550 152.31276 1935 ft 170 kts 272°
2026-04-25 04:42 -32.44516 152.29899 1956 ft 175 kts 271°
2026-04-25 04:42 -32.44508 152.28520 1969 ft 178 kts 269°
2026-04-25 04:42 -32.44532 152.27077 1980 ft 173 kts 268°
2026-04-25 04:43 -32.44589 152.25653 1974 ft 173 kts 266°
2026-04-25 04:43 -32.44683 152.24260 1974 ft 169 kts 264°
2026-04-25 04:43 -32.44811 152.22877 1971 ft 169 kts 262°
2026-04-25 04:43 -32.44968 152.21492 1968 ft 170 kts 261°
2026-04-25 04:44 -32.45149 152.20115 1968 ft 169 kts 259°
2026-04-25 04:44 -32.45361 152.18746 1968 ft 170 kts 258°
2026-04-25 04:44 -32.45608 152.17381 1966 ft 168 kts 256°
2026-04-25 04:44 -32.45885 152.16040 1969 ft 169 kts 254°
2026-04-25 04:45 -32.46198 152.14690 1970 ft 170 kts 252°
2026-04-25 04:45 -32.46533 152.13375 1966 ft 162 kts 252°
2026-04-25 04:45 -32.46704 152.12077 1951 ft 158 kts 264°
2026-04-25 04:45 -32.46891 152.10806 1945 ft 156 kts 253°
2026-04-25 04:46 -32.47112 152.09535 1882 ft 160 kts 265°
2026-04-25 04:46 -32.47165 152.08218 1892 ft 158 kts 265°
2026-04-25 04:46 -32.47253 152.06932 1926 ft 157 kts 265°
2026-04-25 04:46 -32.47335 152.05641 1926 ft 157 kts 265°
2026-04-25 04:47 -32.47352 152.04352 1960 ft 157 kts 274°
2026-04-25 04:47 -32.47276 152.03065 1981 ft 154 kts 273°
2026-04-25 04:47 -32.47228 152.01799 2006 ft 161 kts 271°
2026-04-25 04:47 -32.47207 152.00414 2046 ft 171 kts 270°
2026-04-25 04:48 -32.47223 151.98991 2083 ft 174 kts 268°
2026-04-25 04:48 -32.47270 151.97550 2127 ft 177 kts 266°
2026-04-25 04:48 -32.47345 151.96085 2133 ft 178 kts 265°
2026-04-25 04:48 -32.47451 151.94634 2136 ft 175 kts 264°
2026-04-25 04:49 -32.47581 151.93204 2132 ft 174 kts 263°
2026-04-25 04:49 -32.47737 151.91779 2122 ft 172 kts 261°
2026-04-25 04:49 -32.47919 151.90388 2124 ft 171 kts 260°
2026-04-25 04:49 -32.48135 151.89005 2128 ft 171 kts 258°
2026-04-25 04:50 -32.48383 151.87625 2130 ft 172 kts 256°
2026-04-25 04:50 -32.48660 151.86251 2131 ft 171 kts 255°
2026-04-25 04:50 -32.48967 151.84892 2133 ft 171 kts 253°
2026-04-25 04:50 -32.49301 151.83555 2133 ft 172 kts 251°
2026-04-25 04:51 -32.49671 151.82209 2133 ft 172 kts 250°
2026-04-25 04:51 -32.50068 151.80874 2135 ft 171 kts 248°
2026-04-25 04:51 -32.50492 151.79554 2133 ft 172 kts 247°
2026-04-25 04:51 -32.50939 151.78246 2134 ft 171 kts 246°
2026-04-25 04:52 -32.51420 151.76937 2134 ft 171 kts 244°
2026-04-25 04:52 -32.51922 151.75682 2134 ft 170 kts 240°
2026-04-25 04:52 -32.52654 151.74585 2081 ft 171 kts 219°
2026-04-25 04:52 -32.53562 151.73697 2089 ft 166 kts 214°
2026-04-25 04:53 -32.54425 151.72937 1940 ft 146 kts 214°
2026-04-25 04:53 -32.55212 151.72233 1783 ft 139 kts 213°
2026-04-25 04:53 -32.56020 151.71673 1714 ft 136 kts 198°
2026-04-25 04:53 -32.56940 151.71436 1783 ft 134 kts 179°
2026-04-25 04:54 -32.57864 151.71401 1884 ft 134 kts 176°
2026-04-25 04:54 -32.58818 151.71347 1917 ft 138 kts 181°
2026-04-25 04:54 -32.59784 151.71276 1859 ft 146 kts 177°
2026-04-25 04:54 -32.60818 151.71284 1762 ft 150 kts 173°
2026-04-25 04:55 -32.61850 151.71424 1690 ft 149 kts 166°
2026-04-25 04:55 -32.62862 151.71653 1692 ft 147 kts 166°
2026-04-25 04:55 -32.63858 151.71885 1746 ft 144 kts 163°
2026-04-25 04:55 -32.64812 151.72188 1806 ft 142 kts 160°
2026-04-25 04:56 -32.65732 151.72545 1780 ft 135 kts 156°
2026-04-25 04:56 -32.66597 151.72963 1558 ft 135 kts 153°
2026-04-25 04:56 -32.67451 151.73400 1270 ft 134 kts 155°
2026-04-25 04:56 -32.68311 151.73766 1022 ft 130 kts 158°
2026-04-25 04:57 -32.69157 151.74090 759 ft 122 kts 158°
2026-04-25 04:57 -32.69909 151.74396 652 ft 107 kts 158°
2026-04-25 04:57 -32.70545 151.74681 598 ft 94 kts 154°
2026-04-25 04:57 -32.71175 151.75027 684 ft 105 kts 148°
2026-04-25 04:58 -32.71819 151.75479 798 ft 111 kts 146°
2026-04-25 04:58 -32.72449 151.75962 899 ft 99 kts 142°
2026-04-25 04:58 -32.73009 151.76403 791 ft 94 kts 145°
2026-04-25 04:58 -32.73547 151.76849 750 ft 93 kts 140°
2026-04-25 04:59 -32.74067 151.77289 812 ft 91 kts 144°
2026-04-25 04:59 -32.74430 151.77567 780 ft 97 kts 144°
2026-04-25 04:59 -32.75008 151.78003 756 ft 99 kts 148°
2026-04-25 04:59 -32.75630 151.78316 826 ft 94 kts 155°
2026-04-25 05:00 -32.76169 151.78711 807 ft 89 kts 135°
2026-04-25 05:00 -32.76617 151.79283 691 ft 64 kts 127°
2026-04-25 05:00 -32.76797 151.79537 609 ft 59 kts 127°
2026-04-25 05:00 -32.77052 151.79940 536 ft 64 kts 120°
2026-04-25 05:01 -32.77327 151.80398 611 ft 72 kts 124°
2026-04-25 05:01 -32.77674 151.80852 656 ft 76 kts 129°
2026-04-25 05:01 -32.78029 151.81322 583 ft 75 kts 129°
2026-04-25 05:01 -32.78354 151.81788 461 ft 72 kts 128°
2026-04-25 05:02 -32.78692 151.82259 253 ft 77 kts 127°
2026-04-25 05:02 -32.79039 151.82730 70 ft 72 kts 129°
2026-04-25 05:02 -32.79319 151.83128 34 ft 53 kts 129°
2026-04-25 05:02 -32.79507 151.83385 31 ft 39 kts 129°
2026-04-25 05:03 -32.79706 151.83655 30 ft 47 kts 132°
2026-04-25 05:03 -32.79835 151.83846 30 ft 20 kts 99°
2026-04-25 05:03 -32.79802 151.83947 30 ft 10 kts 53°
2026-04-25 05:03 -32.79790 151.83967 29 ft 2 kts 54°
2026-04-25 05:04 -32.79776 151.83990 29 ft 6 kts 52°
2026-04-25 05:04 -32.79719 151.84084 29 ft 23 kts 54°
2026-04-25 05:04 -32.79606 151.84273 29 ft 24 kts 54°
2026-04-25 05:04 -32.79497 151.84452 29 ft 27 kts 53°
2026-04-25 05:05 -32.79429 151.84603 28 ft 13 kts 106°
2026-04-25 05:05 -32.79433 151.84658 28 ft 6 kts 43°
2026-04-25 05:05 -32.79429 151.84685 28 ft 0 kts 140°
2026-04-25 05:05 -32.79436 151.84693 28 ft 6 kts 137°
2026-04-25 05:06 -32.79461 151.84721 28 ft 0 kts 134°